Stations météo

Publicité
Aurillac, France (7549): Température de l'air & dewpoint: 11.06.2019 17:00:00 - 17.06.2019 17:00:00 (CEST)Aurillac, France (7549): Température de l'air 5cm: 11.06.2019 17:00:00 - 17.06.2019 17:00:00 (CEST)Aurillac, France (7549): Température de l'air -20cm & Température de l'air -100cm: 11.06.2019 17:00:00 - 17.06.2019 17:00:00 (CEST)Aurillac, France (7549): Vitesse du vent & gusts: 11.06.2019 17:00:00 - 17.06.2019 17:00:00 (CEST)Aurillac, France (7549): Direction du vent: 11.06.2019 17:00:00 - 17.06.2019 17:00:00 (CEST)Aurillac, France (7549): reduced air pressure: 11.06.2019 17:00:00 - 17.06.2019 17:00:00 (CEST)Aurillac, France (7549): visibility: 11.06.2019 17:00:00 - 17.06.2019 17:00:00 (CEST)Aurillac, France (7549): Ensoleillement: 11.06.2019 17:00:00 - 17.06.2019 17:00:00 (CEST)Aurillac, France (7549): Quantités de précipitations: 11.06.2019 17:00:00 - 17.06.2019 17:00:00 (CEST)
Date & Time tt [°C] td [°C] tt 5cm [°C] tt -20cm [°C] tt -100cm [°C] ff [km/h] ff [knt] fx [km/h] fx [knt] dd ppp [hPa] vv [km] sd [min] rr [mm]
17.06.2019 17:00:00 26,1 5,6 34,8 16,5 14,0 8 4 18 10 WNW 1013,4 60 60 0,0
17.06.2019 16:00:00 25,2 6,9 34,3 16,4 14,0 8 5 16 9 NW 1014,0 60 60 0,0
17.06.2019 15:00:00 24,5 8,4 33,7 16,3 14,0 8 4 17 9 WNW 1014,5 60 60 0,0
17.06.2019 14:00:00 24,1 11,1 34,0 16,2 14,0 5 3 15 8 WSW 1015,0 60 60 0,0
17.06.2019 13:00:00 23,2 9,9 32,3 16,2 14,0 6 3 14 8 W 1015,5 20 60 0,0
17.06.2019 12:00:00 21,7 10,2 30,4 16,3 14,0 6 3 16 8 NW 1015,9 19 60 0,0
17.06.2019 11:00:00 21,0 10,2 27,3 16,3 14,0 4 2 10 5 E 1016,2 20 60 0,0
17.06.2019 10:00:00 20,0 12,2 21,9 16,4 14,0 5 3 9 5 E 1016,6 54 60 0,0
17.06.2019 09:00:00 16,8 9,9 13,9 16,4 14,0 4 2 10 5 E 1017,7 60 60 0,0
17.06.2019 08:00:00 13,4 9,4 8,7 16,5 14,0 6 4 10 6 E 1018,8 60 60 0,0
17.06.2019 07:00:00 10,0 8,6 6,1 16,6 14,0 6 3 10 5 E 1019,6 32 31 0,0
17.06.2019 06:00:00 8,7 7,6 6,1 16,6 14,0 8 4 12 6 E 1019,8 26 0 0,0
17.06.2019 05:00:00 9,2 8,1 5,5 16,6 14,0 5 3 9 5 ESE 1019,6 24 0 0,0
17.06.2019 04:00:00 9,6 8,4 6,0 16,6 14,0 5 3 9 5 ESE 1019,5 32 0 0,2
17.06.2019 03:00:00 10,4 9,3 7,0 16,6 14,0 7 4 9 5 E 1019,4 33 0 0,0
17.06.2019 02:00:00 11,2 9,8 8,5 16,6 14,0 8 5 10 6 E 1019,8 41 0 0,0
17.06.2019 01:00:00 12,3 10,7 8,7 16,5 14,0 8 4 10 5 E 1019,6 41 0 0,0
17.06.2019 00:00:00 13,6 11,3 8,6 16,4 14,0 5 3 10 5 E 1019,7 46 0 0,0
16.06.2019 23:00:00 15,9 11,1 10,6 16,3 14,0 5 3 10 5 SSW 1019,0 57 0 0,0
16.06.2019 22:00:00 17,7 11,7 14,4 16,2 14,0 5 3 12 7 S 1018,2 56 12 0,0
16.06.2019 21:00:00 20,7 11,1 18,6 16,0 14,0 10 5 17 9 NW 1017,0 57 60 0,0
16.06.2019 20:00:00 22,0 10,8 21,9 15,8 14,0 12 6 19 10 NW 1016,9 60 60 0,0
16.06.2019 19:00:00 22,5 11,6 25,6 15,6 14,0 11 6 26 14 NNW 1017,0 20 60 0,0
16.06.2019 18:00:00 22,1 12,1 25,8 15,5 14,0 10 6 22 12 NW 1017,2 20 57 0,0
16.06.2019 17:00:00 21,4 12,0 29,3 15,4 14,0 11 6 22 12 WNW 1017,8 20 60 0,0
16.06.2019 16:00:00 20,7 11,9 30,0 15,3 14,0 11 6 24 13 NW 1018,4 19 60 0,0
16.06.2019 15:00:00 20,1 11,3 29,5 15,2 14,0 11 6 20 11 W 1019,0 60 60 0,0
16.06.2019 14:00:00 19,4 12,2 30,5 15,2 14,0 10 5 20 11 W 1019,5 20 60 0,0
16.06.2019 13:00:00 18,3 11,4 27,1 15,2 14,0 9 5 19 10 WNW 1020,2 20 60 0,0
16.06.2019 12:00:00 17,7 10,3 25,5 15,2 14,0 11 6 21 11 WNW 1020,8 20 60 0,0
16.06.2019 11:00:00 16,3 9,7 21,8 15,2 14,0 9 5 18 10 NNW 1021,4 60 58 0,0
16.06.2019 10:00:00 14,8 9,4 18,1 15,3 14,0 8 4 13 7 NW 1022,1 43 60 0,0
16.06.2019 09:00:00 12,8 10,0 12,5 15,4 14,0 2 1 6 4 W 1023,0 20 60 0,0
16.06.2019 08:00:00 10,5 9,6 6,6 15,4 14,0 4 2 6 3 E 1023,3 16 60 0,0
16.06.2019 07:00:00 6,9 6,6 4,3 15,5 14,0 7 4 9 5 E 1024,1 11 31 0,0
16.06.2019 06:00:00 6,6 6,3 2,5 15,6 14,0 3 2 9 5 E 1024,1 3,2 0 0,0
16.06.2019 05:00:00 6,5 6,2 3,8 15,7 14,0 6 4 8 5 E 1023,9 8 0 0,0
16.06.2019 04:00:00 6,6 6,2 4,2 15,7 14,0 5 3 11 6 E 1024,1 4,9 0 0,0
16.06.2019 03:00:00 7,2 6,6 5,1 15,7 14,0 6 4 9 5 ESE 1024,2 0,5 0 0,0
16.06.2019 02:00:00 8,1 7,5 5,0 15,8 14,0 5 3 10 5 E 1024,2 10 0 0,0
16.06.2019 01:00:00 8,7 7,8 5,0 15,8 14,0 4 2 5 3 ESE 1023,9 0,8 0 0,0
16.06.2019 00:00:00 9,3 8,2 4,9 15,8 14,0 3 1 6 3 E 1023,7 9 0 0,0
15.06.2019 23:00:00 10,5 8,9 5,5 15,8 14,0 3 2 5 3 E 1022,9 28 0 0,0
15.06.2019 22:00:00 12,1 9,7 7,5 15,7 14,0 0 0 9 5 N 1021,9 19 12 0,0
15.06.2019 21:00:00 14,4 9,8 13,1 15,7 14,0 5 3 17 9 N 1020,9 59 60 0,0
15.06.2019 20:00:00 15,4 10,4 15,0 15,7 14,0 9 5 20 11 NW 1020,6 57 28 0,0
15.06.2019 19:00:00 14,3 10,3 15,3 15,6 14,0 16 9 24 13 NW 1020,7 54 12 0,0
15.06.2019 18:00:00 14,6 9,6 15,0 15,6 14,0 16 9 24 13 NW 1020,1 19 20 0,0
15.06.2019 17:00:00 13,2 10,6 13,6 15,6 14,0 12 7 31 17 NW 1020,5 20 0 0,0
15.06.2019 16:00:00 13,3 10,1 14,5 15,6 14,0 21 12 29 16 NW 1020,1 20 6 0,0
15.06.2019 15:00:00 12,6 11,5 14,4 15,6 14,0 24 13 34 18 WNW 1019,7 13 13 0,0
15.06.2019 14:00:00 15,4 14,1 13,3 15,5 14,0 15 8 22 12 NW 1018,1 19 12 0,2
15.06.2019 13:00:00 13,6 11,8 11,9 15,5 14,0 10 5 27 14 NNE 1018,6 7 0 4,3
15.06.2019 12:00:00 15,3 13,7 17,9 15,6 14,0 12 6 18 10 WNW 1017,4 18 9 0,0
15.06.2019 11:00:00 14,2 13,9 12,7 15,6 14,0 4 2 10 5 NE 1017,4 13 5 1,0
15.06.2019 10:00:00 12,9 12,3 12,8 15,6 14,0 9 5 13 7 SW 1018,1 6 0 0,2
15.06.2019 09:00:00 13,2 12,6 13,6 15,6 14,0 5 3 9 5 NNW 1016,7 12 0 0,2
15.06.2019 08:00:00 13,2 12,9 12,6 15,7 14,0 5 3 10 5 NNW 1016,4 18 13 0,0
15.06.2019 07:00:00 12,2 11,9 11,2 15,7 14,0 5 3 8 4 E 1016,6 14 5 0,0
15.06.2019 06:00:00 11,7 11,4 11,3 15,8 14,0 6 3 11 6 ESE 1016,8 10 0 0,0
15.06.2019 05:00:00 11,7 11,4 11,7 15,8 14,0 6 3 12 6 ESE 1016,8 10 0 0,0
15.06.2019 04:00:00 12,0 11,7 12,0 15,9 14,0 5 3 8 5 E 1016,4 3,8 0 0,0
15.06.2019 03:00:00 12,1 11,8 11,8 15,9 14,0 5 3 9 5 ENE 1016,2 3,7 0 0,0
15.06.2019 02:00:00 11,9 11,4 11,9 15,9 14,0 5 3 8 4 E 1016,2 2,1 0 0,0
15.06.2019 01:00:00 11,8 11,2 9,9 15,9 14,0 4 2 14 7 NE 1015,9 7 0 0,0
15.06.2019 00:00:00 11,5 10,7 6,8 15,9 14,0 6 4 13 7 SW 1015,4 4,3 0 0,0
14.06.2019 23:00:00 12,0 11,1 7,9 16,0 14,0 0 0 9 5 N 1014,2 13 0 0,0
14.06.2019 22:00:00 13,0 11,7 11,3 15,9 14,0 6 3 18 10 ESE 1013,3 19 0 2,0
14.06.2019 21:00:00 13,6 11,8 12,9 15,9 14,0 9 5 27 15 NNW 1014,0 2,3 0 3,4
14.06.2019 20:00:00 16,0 11,8 15,4 15,9 14,0 16 9 23 13 WNW 1012,6 58 0 0,0
14.06.2019 19:00:00 16,5 11,8 15,3 15,9 14,0 15 8 20 11 WNW 1011,3 46 0 0,2
14.06.2019 18:00:00 16,3 11,4 15,6 15,9 14,0 10 6 13 7 WNW 1010,4 32 0 0,0
14.06.2019 17:00:00 16,8 10,4 17,5 15,9 14,0 8 4 22 12 NW 1010,6 55 0 0,0
14.06.2019 16:00:00 16,2 9,4 17,1 15,9 14,0 15 8 27 15 NNW 1010,3 40 0 0,0
14.06.2019 15:00:00 15,9 12,3 14,8 15,9 14,0 16 8 24 13 WNW 1010,6 34 0 0,0
14.06.2019 14:00:00 15,9 9,8 14,1 15,8 14,0 6 3 9 5 N 1010,8 20 0 0,2
14.06.2019 13:00:00 16,1 7,6 15,0 15,8 14,0 9 5 16 9 NE 1011,8 40 0 0,0
14.06.2019 12:00:00 17,2 7,5 16,1 15,8 14,0 6 3 18 10 SE 1012,0 59 0 0,0
14.06.2019 11:00:00 17,5 6,7 18,5 15,9 14,0 8 5 16 8 ESE 1013,0 55 0 0,0
14.06.2019 10:00:00 17,6 4,5 17,5 15,9 14,0 9 5 26 14 SSE 1012,8 58 8 0,0
14.06.2019 09:00:00 16,8 2,0 14,5 15,9 14,0 16 9 26 14 E 1011,2 60 21 0,0
14.06.2019 08:00:00 14,1 2,9 11,6 16,0 14,0 9 5 14 8 ESE 1013,6 58 6 0,0
14.06.2019 07:00:00 12,6 2,2 11,0 16,0 14,0 8 4 11 6 ESE 1014,1 60 0 0,0
14.06.2019 06:00:00 14,4 -2,1 12,2 16,0 14,0 6 3 16 9 SE 1014,0 60 0 0,0
14.06.2019 05:00:00 15,0 -0,8 11,6 16,0 14,0 11 6 19 10 ESE 1013,1 60 0 0,0
14.06.2019 04:00:00 16,2 -1,0 13,1 16,0 14,0 10 5 18 10 WSW 1012,9 60 0 0,0
14.06.2019 03:00:00 17,3 -0,9 15,4 16,0 14,0 7 4 27 14 SE 1011,3 60 0 0,0
14.06.2019 02:00:00 16,9 -0,4 14,2 15,9 14,0 14 8 23 13 ESE 1011,4 57 0 0,0
14.06.2019 01:00:00 16,8 0,4 13,9 15,9 14,0 10 6 22 12 E 1011,5 60 0 0,0
14.06.2019 00:00:00 16,3 2,3 12,7 15,8 14,0 12 7 21 11 ESE 1012,1 60 0 0,0
13.06.2019 23:00:00 15,8 3,6 13,1 15,7 14,0 10 6 23 12 SE 1012,2 60 0 0,0
13.06.2019 22:00:00 16,9 4,9 13,8 15,5 14,0 10 5 27 15 ESE 1011,8 60 11 0,0
13.06.2019 21:00:00 19,4 3,9 17,5 15,4 14,0 16 9 31 17 SSE 1011,1 20 60 0,0
13.06.2019 20:00:00 21,8 5,6 22,0 15,2 14,0 13 7 32 17 SSE 1010,0 35 60 0,0
13.06.2019 19:00:00 22,7 6,4 25,3 15,1 14,0 18 10 34 18 S 1009,5 21 60 0,0
13.06.2019 18:00:00 23,0 5,9 26,0 14,9 14,0 21 12 35 19 S 1009,5 27 58 0,0
13.06.2019 17:00:00 23,5 7,6 27,8 14,8 14,0 19 11 37 20 S 1009,3 11 58 0,0
13.06.2019 16:00:00 23,0 5,4 27,9 14,7 14,0 21 11 39 21 SSW 1009,9 11 60 0,0
13.06.2019 15:00:00 22,6 6,4 28,0 14,4 14,0 23 13 44 24 SSE 1010,2 9 60 0,0
13.06.2019 14:00:00 21,6 6,7 26,3 14,5 14,0 25 14 48 26 SSE 1010,4 7 60 0,0
13.06.2019 13:00:00 20,4 6,0 25,1 14,2 14,0 29 16 50 27 SSE 1010,9 8 60 0,0
13.06.2019 12:00:00 19,7 6,8 23,1 14,4 14,0 27 14 45 24 SE 1011,6 12 60 0,0
13.06.2019 11:00:00 17,9 7,3 20,8 14,5 14,0 24 13 40 22 SE 1012,1 17 60 0,0
13.06.2019 10:00:00 16,2 6,9 17,9 14,5 14,0 17 9 27 14 ESE 1012,9 27 60 0,0
13.06.2019 09:00:00 14,1 6,7 12,0 14,6 14,0 11 6 19 10 ESE 1013,5 19 60 0,0
13.06.2019 08:00:00 10,4 5,8 5,6 14,7 14,0 9 5 14 8 ESE 1014,6 40 60 0,0
13.06.2019 07:00:00 6,8 4,5 4,5 14,8 14,0 11 6 22 12 ESE 1015,7 39 31 0,0
13.06.2019 06:00:00 6,0 4,5 4,1 15,0 14,0 10 6 17 9 ESE 1016,2 59 0 0,0
13.06.2019 05:00:00 5,6 4,9 3,8 14,8 14,0 11 6 18 10 ESE 1016,3 53 0 0,0
13.06.2019 04:00:00 5,7 5,1 3,5 15,0 14,0 10 5 16 8 E 1016,4 46 0 0,0
13.06.2019 03:00:00 5,9 5,3 4,7 15,1 14,0 13 7 19 10 E 1016,9 38 0 0,0
13.06.2019 02:00:00 6,0 5,4 4,6 15,1 14,0 10 5 14 7 ESE 1017,2 20 0 0,2
13.06.2019 01:00:00 6,5 5,9 3,7 15,1 14,0 9 5 13 7 E 1017,2 17 0 0,0
13.06.2019 00:00:00 7,3 6,4 4,9 15,1 14,0 9 5 16 9 ESE 1017,0 19 0 0,0
12.06.2019 23:00:00 8,9 7,7 3,6 15,1 14,0 5 3 7 4 ENE 1016,6 32 0 0,0
12.06.2019 22:00:00 11,0 7,7 6,1 15,1 14,0 6 3 14 7 WSW 1015,6 40 11 0,0
12.06.2019 21:00:00 12,6 8,1 10,7 15,1 14,0 8 5 15 8 W 1015,0 52 60 0,0
12.06.2019 20:00:00 12,9 9,0 10,0 15,0 14,0 6 3 27 14 WSW 1014,5 20 20 1,2
12.06.2019 19:00:00 13,5 7,3 13,5 14,9 14,0 15 8 23 12 SW 1013,9 46 0 0,0
12.06.2019 18:00:00 13,0 7,2 10,9 14,9 14,0 13 7 28 15 SW 1014,1 53 3 0,0
12.06.2019 17:00:00 12,8 7,7 11,5 14,8 14,0 13 7 31 17 WSW 1014,1 23 0 0,2
12.06.2019 16:00:00 12,6 7,1 13,3 14,7 14,0 16 9 30 16 SSW 1013,9 42 0 0,0
12.06.2019 15:00:00 13,1 7,3 14,0 14,8 14,0 16 9 34 18 SW 1013,6 20 5 0,0
12.06.2019 14:00:00 12,3 6,8 15,7 14,7 14,0 15 8 28 15 SW 1013,7 47 11 0,0
12.06.2019 13:00:00 11,8 7,3 12,6 14,8 14,0 16 9 27 15 SW 1013,8 54 18 0,0
12.06.2019 12:00:00 9,5 6,8 10,0 14,9 14,0 14 8 30 16 SSW 1014,8 20 0 0,0
12.06.2019 11:00:00 9,4 6,7 9,1 15,0 14,0 19 10 31 17 SSW 1014,3 40 0 0,0
12.06.2019 10:00:00 9,0 6,8 8,4 15,1 14,0 13 7 25 14 SSW 1014,0 20 0 0,0
12.06.2019 09:00:00 8,2 6,5 7,9 15,3 14,0 14 8 25 14 SSW 1013,9 42 2 0,0
12.06.2019 08:00:00 8,0 6,6 7,4 15,2 14,0 12 6 22 12 SSW 1013,8 49 0 0,0
12.06.2019 07:00:00 7,8 6,6 7,4 15,4 14,0 10 6 18 10 SSW 1013,5 44 0 0,0
12.06.2019 06:00:00 7,8 6,7 7,4 15,5 14,0 11 6 19 10 SW 1013,2 19 0 0,0
12.06.2019 05:00:00 7,8 6,9 7,4 15,5 14,0 12 6 26 14 SW 1013,0 19 0 0,2
12.06.2019 04:00:00 7,8 6,6 7,5 15,7 14,0 9 5 17 9 SW 1013,1 16 0 0,2
12.06.2019 03:00:00 8,0 6,5 7,7 15,6 14,0 7 4 20 11 SW 1013,4 20 0 0,0
12.06.2019 02:00:00 8,0 6,6 7,6 15,6 14,0 8 4 18 10 SW 1013,8 60 0 0,0
12.06.2019 01:00:00 8,3 6,3 7,9 15,6 14,0 8 5 22 12 WSW 1014,1 50 0 0,0
12.06.2019 00:00:00 8,8 6,1 7,5 15,6 14,0 14 7 23 13 SW 1014,0 60 0 0,0
11.06.2019 23:00:00 9,2 5,9 7,2 15,6 14,0 7 4 13 7 SW 1014,0 60 0 0,0
11.06.2019 22:00:00 9,4 5,6 7,0 15,5 14,0 3 2 16 9 SW 1013,5 56 10 0,0
11.06.2019 21:00:00 10,7 6,1 9,8 15,6 13,9 11 6 26 14 W 1012,8 50 48 0,0
11.06.2019 20:00:00 12,5 7,0 12,5 15,6 13,9 18 10 28 15 W 1012,0 60 48 0,0
11.06.2019 19:00:00 13,0 7,2 13,4 15,4 14,0 11 6 24 13 SSW 1011,6 60 38 0,0
11.06.2019 18:00:00 13,6 9,6 9,0 15,5 14,0 11 6 44 24 SW 1011,6 60 30 1,6
11.06.2019 17:00:00 12,3 7,2 13,3 15,3 13,9 12 6 25 13 SSW 1012,0 20 4 0,0

tt = Température de l'air
td = dewpoint
tt 5cm = Température de l'air 5cm
tt -20cm = Température de l'air -20cm
tt -100cm = Température de l'air -100cm
ff = Vitesse du vent
fx = gusts
dd = Direction du vent
ppp = reduced air pressure
vv = visibility
sd = Ensoleillement
rr = Quantités de précipitations

stations d'obs. à proximité